Regional Weather Roundup
Issued by NWS Kansas City/Pleasant Hill, MO

Home | Current Version | Previous Version | Text Only | Print | Product List | Glossary On
Versions: 1 2 3 4 5 6 7 8 9 10 11 12 13 14 15 16 17 18 19 20 21 22 23 24 25 26 27 28 29 30 31 32 33 34 35 36 37 38 39 40 41 42 43 44 45 46 47 48 49 50
000
ASUS43 KEAX 281010
RWREAX

WEATHER ROUNDUP FOR EASTERN KANSAS AND NORTHWEST MISSOURI
NATIONAL WEATHER SERVICE KANSAS CITY/PLEASANT HILL MO
400 AM CST WED JAN 28 2015

KSZ040-057-103>105-MOZ028-029-037-043-281100-
...KANSAS CITY METROPOLITAN AREA...

CITY           SKY/WX    TMP DP  RH WIND       PRES   REMARKS
K.C. INTL      CLEAR     40  30  67 SE14      29.96F WCI  32
K.C. DOWNTOWN  CLEAR     44  29  55 SE9       29.98F
LEES SUMMIT    CLEAR     42  29  59 SE8       29.99F
OLATHE - IXD   CLEAR     43  30  60 S8        29.97F
OLATHE - OJC   CLEAR     40  30  67 S13       29.97F WCI  32
LAWRENCE       CLEAR     33  27  78 SE8       29.96F WCI  26

$$

MOZ001>008-011>017-020>025-030>033-038>040-044>046-053-054-281100-
...NORTHERN AND CENTRAL MISSOURI...

CITY           SKY/WX    TMP DP  RH WIND       PRES   REMARKS
ST. JOSEPH     CLEAR     40  30  67 SE10      29.97F WCI  33
MOSBY          SUNNY     37  32  81 SE5       30.00F WCI  34
WARRENSBURG    CLEAR     41  30  65 SE10      30.02F WCI  35
WHITEMAN AFB   CLEAR     37  30  74 SE8       30.02F WCI  31
CLINTON        CLEAR     41  32  70 SE7       30.04F
SEDALIA        CLEAR     36  29  75 SE12      30.06F WCI  28
WARSAW         NOT AVBL
MARSHALL       CLEAR     37  32  81 E9        30.09S WCI  31
CHILLICOTHE      N/A     33  29  85 E10       30.06F WCI  25
MOBERLY        CLEAR     30  27  86 SE10      30.12F FOG     WCI  21
KIRKSVILLE     CLEAR     28  27  96 SE12      30.12F FOG     WCI  18

$$

MOZ041-047>049-056>058-063>065-088>090-097-281100-
...EASTERN AND SOUTHERN MISSOURI...

CITY           SKY/WX    TMP DP  RH WIND       PRES   REMARKS
ST. LOUIS INTL CLEAR     30  25  81 SE10      30.23F WCI  21
SPIRIT OF STL  CLEAR     29  25  85 E5        30.22F WCI  24
COLUMBIA       CLEAR     31  28  89 SE12      30.12F WCI  22
JEFFERSON CITY CLEAR     34  29  82 E10       30.15F WCI  26
MEXICO         CLEAR    N/A N/A N/A SE9       30.15F
HANNIBAL       CLEAR     30  27  86 SE7       30.17F WCI  23
ROLLA          CLEAR     32  28  85 SE13      30.13S WCI  22
LEBANON        CLEAR     37  34  87 SE14      30.10F WCI  29
OSAGE BEACH    CLEAR     37  30  75 SE10      30.10F WCI  30
SPRINGFIELD    CLEAR     42  33  70 SE24      30.07S WCI  32
BRANSON        CLEAR     37  32  81 SE12      30.12F WCI  30
NEVADA         CLEAR     45  32  61 S12       30.02F
JOPLIN         CLEAR     48  29  47 S9        30.03F
WEST PLAINS    CLEAR     34  28  79 SE7       30.19S WCI  28

$$

IAZ060-094-KSZ022-034>040-054-083-096-NEZ052-066-093-281100-
...KANSAS...SOUTHEAST NEBRASKA AND IOWA...

CITY           SKY/WX    TMP DP  RH WIND       PRES   REMARKS
TOPEKA         CLEAR     39  28  64 SE7       29.94F WCI  34
MANHATTAN      CLEAR     33  30  88 CALM      29.90F
EMPORIA        CLEAR     40  33  76 S12       29.93F WCI  33
CHANUTE        CLEAR     40  33  76 SE8       29.98F WCI  34
WICHITA        CLEAR     43  34  70 S6        29.93F
OMAHA          PTCLDY    36  30  79 SE13      29.93F WCI  27
LINCOLN        PTCLDY    36  28  73 E6        29.90F WCI  31
FALLS CITY     CLEAR     34  28  79 SE8       29.93F WCI  27
LAMONI         CLEAR     30  28  92 SE9       30.03F WCI  22
DES MOINES     CLOUDY    31  27  85 SE12      30.07F FOG     WCI  22

$$



USA.gov is the U.S. government's official web portal to all federal, state and local government web resources and services.